User: anonymous   Login
Location: Unspecified
(0.0000°N, 0.0000°E)
Time: 09:23:45
(UTC+00:00)
Language:

PEASSS - Orbit

View from above orbital plane
View from above orbital plane
View from above satellite
View from above satellite

Ground track
Ground track

The orbit data is extracted from the following two-line orbital elements,

1 42015U 17008BV  18023.90512162 +.00001135 +00000-0 +50374-4 0  9991
2 42015 097.4675 089.6107 0007281 154.4318 205.7281 15.23627871051943
Epoch (UTC): 23 January 2018 21:43:22
Eccentricity: 0.0007281
inclination: 97.4675°
perigee height: 490 km
apogee height: 500 km
right ascension of ascending node: 89.6107°
argument of perigee: 154.4318°
revolutions per day: 15.23627871
mean anomaly at epoch: 205.7281°
orbit number at epoch: 5194

The dashed part of the orbit path shows where the satellite is in the earth's shadow,  

DLR